Meteo Giornale » Osservazioni meteo Svizzera » Sion

ore: 21:20 - Osservazioni Meteo Sion
Lat. 46° 13' N Lon. 7° 20' E Alt. 482 metri s.l.m.

sereno

21 °C

Sereno

Temp. 24 Ore

12 °C

26 °C

Ovest

9.3 Km/h

Dew point 10 °C

Umidità 49 %

Visibilità  10 Km

Il sole sorge alle ore 06:51

Il sole tramonta alle ore 20:10

Data e Ora Cielo e Fenomeni T °C DP °C Um. % Pres. hPa Vis. km Vento km/h
Oggi h: 21:20 sereno Sereno 21 10 49 1021 10 O 9.3
Oggi h: 20:50 sereno Sereno 22 10 46 1021 10 N 5.5
Oggi h: 20:20 sereno Sereno 23 9 40 1020 10 O/SO 11.1
Oggi h: 19:50 sereno Sereno 24 9 38 1020 10 O/SO 24
Oggi h: 19:20 sereno Sereno 24 10 41 1019 10 O/SO 31.5
Oggi h: 18:50 sereno Sereno 25 11 41 1019 10 O/SO 25.9
Oggi h: 18:20 sereno Sereno 25 11 41 1019 10 O/SO 25.9
Oggi h: 17:50 sereno Sereno 25 11 41 1019 10 O/SO 22.2
Oggi h: 17:20 sereno Sereno 25 11 41 1019 10 O/SO 33.3
Oggi h: 16:50 sereno Sereno 26 11 39 1019 10 O/SO 29.6
Oggi h: 16:20 sereno Sereno 26 11 39 1019 10 O 29.6
Oggi h: 15:50 poco_nuvoloso Poco Nuvoloso 26 12 41 1019 10 O 22.2
Oggi h: 15:20 poco_nuvoloso Poco Nuvoloso 26 12 41 1020 10 O 24
Oggi h: 14:50 sereno Sereno 25 12 44 1020 10 O 20.3
Oggi h: 14:20 sereno Sereno 25 12 44 1021 10 O/SO 14.8
Oggi h: 13:50 sereno Sereno 24 12 47 1021 10 SO 9.3
Oggi h: 13:20 sereno Sereno 23 11 46 1022 10 SO 9.3
Oggi h: 12:50 sereno Sereno 23 12 49 1022 10 O/SO 11.1
Oggi h: 12:20 sereno Sereno 22 11 49 1022 10 SO 9.3
Oggi h: 11:50 sereno Sereno 21 11 52 1023 10 N 5.5
Oggi h: 11:20 sereno Sereno 21 11 52 1023 10 N 3.7
Oggi h: 10:50 sereno Sereno 20 10 52 1023 10 N 3.7
Oggi h: 10:20 sereno Sereno 19 10 55 1024 10 N 3.7
Oggi h: 09:50 sereno Sereno 18 11 63 1024 10 E/NE 7.4
Oggi h: 09:20 sereno Sereno 17 11 67 1024 10 E/NE 9.3
Oggi h: 08:50 sereno Sereno 16 11 72 1024 10 E/NE 9.3
Oggi h: 08:20 sereno Sereno 15 12 82 1024 10 E/NE 9.3
Oggi h: 07:50 sereno Sereno 14 10 76 1024 10 E 9.3
Oggi h: 07:20 sereno Sereno 12 10 87 1024 10 E/NE 9.3
Oggi h: 06:50 sereno Sereno 12 11 93 1024 10 N 1.8
Oggi h: 06:20 sereno Sereno 12 10 87 1024 10 N 1.8
Oggi h: 05:50 sereno Sereno 12 10 87 1024 10 N 1.8
Oggi h: 05:20 sereno Sereno 14 11 82 1024 10 N 1.8
Oggi h: 04:50 sereno Sereno 13 10 81 1023 10 N 1.8
Oggi h: 04:20 sereno Sereno 14 10 76 1023 10 N 1.8
Oggi h: 03:50 sereno Sereno 15 10 72 1023 10 E 9.3
Oggi h: 03:20 sereno Sereno 16 10 67 1023 10 E 11.1
Oggi h: 02:50 sereno Sereno 15 11 76 1023 10 E 9.3
Oggi h: 02:20 sereno Sereno 15 11 76 1023 10 E 9.3
Oggi h: 01:50 sereno Sereno 16 11 72 1023 10 E 7.4
Oggi h: 01:20 sereno Sereno 16 11 72 1023 10 N 5.5
Oggi h: 00:50 sereno Sereno 17 11 67 1023 10 E/NE 9.3
Oggi h: 00:20 sereno Sereno 18 11 63 1023 10 E/NE 7.4
Ieri h: 23:50 sereno Sereno 18 11 63 1022 10 E/NE 9.3
Ieri h: 23:20 sereno Sereno 19 11 59 1022 10 N 1.8
Ieri h: 22:50 sereno Sereno 21 11 52 1022 10 N 5.5
Ieri h: 22:20 sereno Sereno 21 11 52 1022 10 O/SO 16.7
Ieri h: 21:50 sereno Sereno 21 11 52 1021 10 O/SO 11.1